Stations météo

réclame
Mon MeteoGroup
Greifswald, Allemagne (10184): Température de l'air & dewpoint: 22.05.2018 12:00:00 - 28.05.2018 12:00:00 (CEST)Greifswald, Allemagne (10184): Température de l'air 5cm & Température de l'air -5cm: 22.05.2018 12:00:00 - 28.05.2018 12:00:00 (CEST)Greifswald, Allemagne (10184): Température de l'air -20cm & Température de l'air -100cm: 22.05.2018 12:00:00 - 28.05.2018 12:00:00 (CEST)Greifswald, Allemagne (10184): Vitesse du vent & gusts: 22.05.2018 12:00:00 - 28.05.2018 12:00:00 (CEST)Greifswald, Allemagne (10184): Direction du vent: 22.05.2018 12:00:00 - 28.05.2018 12:00:00 (CEST)Greifswald, Allemagne (10184): reduced air pressure: 22.05.2018 12:00:00 - 28.05.2018 12:00:00 (CEST)Greifswald, Allemagne (10184): visibility: 22.05.2018 12:00:00 - 28.05.2018 12:00:00 (CEST)Greifswald, Allemagne (10184): Ensoleillement: 22.05.2018 12:00:00 - 28.05.2018 12:00:00 (CEST)Greifswald, Allemagne (10184): Quantités de précipitations: 22.05.2018 12:00:00 - 28.05.2018 12:00:00 (CEST)
Date & Time tt [°C] td [°C] tt 5cm [°C] tt -5cm [°C] tt -20cm [°C] tt -100cm [°C] ff [km/h] ff [knt] fx [km/h] fx [knt] dd ppp [hPa] vv [km] sd [min] rr [mm]
28.05.2018 12:00:00 - - - - - - - - - - - - - - -
28.05.2018 11:00:00 22,2 17,0 28,8 24,0 19,0 15,2 12 6 18 10 NE 1022,7 18 60 0,0
28.05.2018 10:00:00 21,5 16,6 25,9 21,1 18,5 15,2 11 6 18 10 E 1022,8 15 60 0,0
28.05.2018 09:00:00 19,3 15,5 21,9 19,1 18,3 15,2 15 8 24 13 E 1022,8 16 60 0,0
28.05.2018 08:00:00 17,2 14,5 18,0 17,6 18,3 15,2 8 4 19 10 ENE 1022,8 14 56 0,0
28.05.2018 07:00:00 16,1 13,7 16,9 16,9 18,4 15,2 9 5 19 11 ENE 1022,7 14 41 0,0
28.05.2018 06:00:00 14,9 13,4 14,0 16,5 18,6 15,2 9 5 14 7 ENE 1022,6 15 6 0,0
28.05.2018 05:00:00 15,6 13,3 12,7 16,9 18,9 15,1 6 3 23 13 ESE 1022,6 20 0 0,0
28.05.2018 04:00:00 16,7 13,1 15,5 17,1 19,2 15,1 16 8 23 12 ENE 1022,3 25 0 0,0
28.05.2018 03:00:00 16,2 13,1 14,2 17,3 19,5 15,1 10 6 16 9 E 1022,5 25 0 0,0
28.05.2018 02:00:00 15,6 13,3 12,8 17,7 19,8 15,1 11 6 17 9 ENE 1022,3 25 0 0,0
28.05.2018 01:00:00 15,0 13,6 12,1 18,3 20,2 15,1 10 6 16 9 ENE 1022,8 20 0 0,0
28.05.2018 00:00:00 16,2 14,1 13,8 19,2 20,5 15,1 3 1 12 7 N 1022,9 20 0 0,0
27.05.2018 23:00:00 17,1 14,5 16,6 19,7 20,8 15,1 11 6 21 11 ENE 1022,9 25 0 0,0
27.05.2018 22:00:00 16,3 12,3 13,5 20,4 21,2 15,1 6 4 16 9 ENE 1022,8 30 0 0,0
27.05.2018 21:00:00 18,3 12,8 15,8 21,8 21,3 15,1 6 4 20 11 ESE 1022,3 30 47 0,0
27.05.2018 20:00:00 19,2 15,0 19,3 23,2 21,3 15,1 10 6 27 14 ESE 1022,5 16 54 0,0
27.05.2018 19:00:00 17,9 15,5 19,1 23,3 21,2 15,1 20 11 34 19 NE 1022,4 9 44 0,0
27.05.2018 18:00:00 16,2 15,2 17,8 22,9 21,1 15,1 20 11 32 18 ENE 1022,3 6 0 0,0
27.05.2018 17:00:00 15,7 14,7 17,8 23,6 20,8 15,0 16 9 28 15 NE 1022,4 5 1 0,0
27.05.2018 16:00:00 16,0 14,2 20,2 23,1 20,6 15,0 16 9 30 16 NE 1022,7 8 2 0,0
27.05.2018 15:00:00 15,6 14,0 17,8 22,8 20,3 15,0 16 9 28 15 NE 1023,3 10 4 0,0
27.05.2018 14:00:00 14,9 13,4 16,6 22,6 20,0 15,0 16 9 27 14 ENE 1023,9 12 0 0,0
27.05.2018 13:00:00 16,0 14,0 19,4 21,6 19,7 15,0 14 8 23 13 NE 1024,0 10 0 0,0
27.05.2018 12:00:00 15,7 13,8 18,8 20,5 19,6 15,0 13 7 22 12 ENE 1024,0 14 0 0,0
27.05.2018 11:00:00 14,9 13,8 16,5 19,7 19,5 15,0 13 7 22 12 NE 1024,0 10 0 0,0
27.05.2018 10:00:00 14,8 14,0 16,5 19,2 19,6 15,0 10 5 22 12 NE 1023,7 7 0 0,0
27.05.2018 09:00:00 14,5 13,8 15,5 18,7 19,7 15,0 13 7 22 12 NE 1023,8 6 0 0,0
27.05.2018 08:00:00 14,5 13,7 15,3 18,7 19,8 15,0 13 7 21 12 NE 1023,3 9 0 0,0
27.05.2018 07:00:00 14,8 13,8 15,4 18,6 20,0 14,9 10 5 16 9 NE 1023,2 12 0 0,0
27.05.2018 06:00:00 14,5 13,9 14,8 18,6 20,3 14,9 9 5 18 10 NE 1023,1 6 0 0,0
27.05.2018 05:00:00 14,5 13,5 14,8 18,8 20,5 14,9 6 3 15 8 ENE 1023,2 8 0 0,0
27.05.2018 04:00:00 14,6 13,5 14,8 19,1 20,9 14,9 8 5 18 10 NE 1023,5 11 0 0,0
27.05.2018 03:00:00 14,5 13,5 14,8 19,5 21,2 14,9 10 5 27 15 NE 1023,6 11 0 0,0
27.05.2018 02:00:00 15,2 14,0 15,4 19,9 21,6 14,9 15 8 26 14 NE 1024,0 9 0 0,0
27.05.2018 01:00:00 15,2 13,8 15,4 20,4 22,0 14,9 11 6 19 10 NE 1023,9 11 0 0,0
27.05.2018 00:00:00 15,0 13,9 15,4 21,0 22,4 14,9 10 5 17 9 NNE 1023,9 7 0 0,0
26.05.2018 23:00:00 14,8 13,8 15,1 21,7 22,9 14,9 10 5 18 10 NE 1024,0 8 0 0,0
26.05.2018 22:00:00 15,2 13,9 15,2 22,6 23,5 14,9 7 4 21 12 NE 1024,0 9 0 0,0
26.05.2018 21:00:00 15,7 13,6 14,8 24,4 23,9 14,9 9 5 17 9 NE 1023,8 17 43 0,0
26.05.2018 20:00:00 16,7 13,5 17,1 26,7 24,1 14,9 10 5 26 14 NE 1023,7 30 60 0,0
26.05.2018 19:00:00 17,8 13,6 18,9 28,3 24,0 14,9 19 10 28 15 NE 1023,6 30 60 0,0
26.05.2018 18:00:00 18,6 13,7 21,0 29,4 23,7 14,8 18 10 30 16 NE 1023,4 23 60 0,0
26.05.2018 17:00:00 18,2 13,1 21,8 29,9 23,2 14,8 21 11 33 18 NE 1024,3 17 60 0,0
26.05.2018 16:00:00 18,0 12,8 22,3 29,9 22,5 14,8 22 12 32 17 ENE 1024,2 17 60 0,0
26.05.2018 15:00:00 18,6 13,7 23,0 28,9 21,8 14,8 21 12 31 17 ENE 1024,0 17 60 0,0
26.05.2018 14:00:00 19,0 14,6 23,6 26,6 21,2 14,8 18 10 28 15 NE 1024,3 23 38 0,0
26.05.2018 13:00:00 17,4 13,5 19,7 25,2 20,7 14,8 14 7 24 13 NE 1024,3 23 1 0,0
26.05.2018 12:00:00 18,2 13,8 23,0 26,4 19,9 14,8 17 9 25 13 NE 1024,3 25 56 0,0
26.05.2018 11:00:00 18,2 13,9 24,5 23,7 19,2 14,8 15 8 23 12 NE 1024,0 20 60 0,0
26.05.2018 10:00:00 17,5 12,7 23,4 21,2 18,7 14,8 14 8 27 14 NE 1023,9 16 60 0,0
26.05.2018 09:00:00 17,0 13,2 20,1 19,4 18,4 14,8 18 10 25 14 ENE 1023,8 22 45 0,0
26.05.2018 08:00:00 16,0 13,3 17,6 18,2 18,3 14,8 15 8 26 14 ENE 1023,7 18 38 0,0
26.05.2018 07:00:00 15,4 13,2 15,4 16,9 18,5 14,7 7 4 12 6 ENE 1023,4 19 54 0,0
26.05.2018 06:00:00 12,7 12,2 12,4 15,8 18,8 14,7 6 4 13 7 ENE 1023,5 8 6 0,0
26.05.2018 05:00:00 12,8 12,1 10,2 16,2 19,1 14,7 6 4 16 9 ENE 1023,3 9 0 0,0
26.05.2018 04:00:00 14,0 12,7 12,2 16,6 19,5 14,7 11 6 22 12 ENE 1023,4 16 0 0,0
26.05.2018 03:00:00 13,6 12,9 11,7 17,1 20,0 14,7 11 6 18 10 ENE 1023,5 13 0 0,0
26.05.2018 02:00:00 14,2 13,4 12,5 17,5 20,4 14,7 12 7 18 10 ENE 1023,4 15 0 0,0
26.05.2018 01:00:00 13,9 12,7 12,4 18,2 21,0 14,7 9 5 24 13 ENE 1023,6 15 0 0,0
26.05.2018 00:00:00 13,9 12,4 12,4 18,9 21,5 14,7 13 7 22 12 ENE 1023,5 20 0 0,0
25.05.2018 23:00:00 14,2 12,2 12,8 19,9 22,1 14,7 14 8 24 13 ENE 1023,6 26 0 0,0
25.05.2018 22:00:00 13,8 12,2 12,6 21,2 22,7 14,7 15 8 21 11 ENE 1023,7 25 0 0,0
25.05.2018 21:00:00 14,2 11,9 13,4 23,2 23,2 14,7 14 7 25 14 ENE 1023,5 30 49 0,0
25.05.2018 20:00:00 14,8 11,5 15,1 25,5 23,4 14,6 16 9 29 16 ENE 1023,4 30 60 0,0
25.05.2018 19:00:00 15,5 11,5 16,6 27,2 23,4 14,6 15 8 32 17 NE 1023,5 35 60 0,0
25.05.2018 18:00:00 16,0 11,7 18,7 28,4 23,1 14,6 19 10 30 16 ENE 1023,9 45 60 0,0
25.05.2018 17:00:00 16,5 12,0 19,8 28,9 22,6 14,6 21 11 31 17 ENE 1023,9 45 60 0,0
25.05.2018 16:00:00 16,1 11,3 20,0 28,6 22,0 14,6 21 12 32 17 NE 1024,4 45 60 0,0
25.05.2018 15:00:00 16,3 11,8 21,7 27,0 21,4 14,6 16 9 34 18 ENE 1024,7 45 50 0,0
25.05.2018 14:00:00 16,1 11,4 20,3 26,9 20,7 14,6 22 12 34 19 ENE 1024,8 45 59 0,0
25.05.2018 13:00:00 15,9 10,4 20,9 25,8 19,9 14,6 24 13 40 22 NE 1024,9 45 60 0,0
25.05.2018 12:00:00 16,7 10,6 22,1 24,2 19,2 14,6 27 15 36 19 NE 1025,1 40 60 0,0
25.05.2018 11:00:00 16,9 10,6 21,9 22,1 18,6 14,6 26 14 38 21 NE 1025,2 40 60 0,0
25.05.2018 10:00:00 16,8 10,2 21,1 19,8 18,1 14,5 28 15 38 20 ENE 1025,2 40 60 0,0
25.05.2018 09:00:00 16,8 10,0 20,1 17,9 18,0 14,5 23 13 35 19 NE 1025,2 30 60 0,0
25.05.2018 08:00:00 15,8 10,6 18,0 16,4 18,0 14,5 16 9 28 15 ENE 1025,1 30 60 0,0
25.05.2018 07:00:00 14,4 9,9 15,5 15,5 18,3 14,5 11 6 19 11 ENE 1025,3 30 60 0,0
25.05.2018 06:00:00 12,6 10,0 11,9 15,2 18,7 14,5 11 6 19 10 ENE 1025,0 25 21 0,0
25.05.2018 05:00:00 12,2 9,7 10,2 15,6 19,1 14,5 11 6 18 10 ENE 1025,0 25 0 0,0
25.05.2018 04:00:00 12,9 9,9 11,1 16,2 19,6 14,5 13 7 24 13 E 1024,9 27 0 0,0
25.05.2018 03:00:00 12,7 9,8 11,3 16,8 20,1 14,5 11 6 19 10 E 1025,0 25 0 0,0
25.05.2018 02:00:00 12,9 10,2 11,5 17,5 20,7 14,5 9 5 31 17 E 1025,0 25 0 0,0
25.05.2018 01:00:00 13,7 10,2 12,5 18,3 21,3 14,4 21 11 31 17 E 1024,8 30 0 0,0
25.05.2018 00:00:00 14,2 10,0 12,7 19,2 21,9 14,4 16 9 27 14 E 1024,9 30 0 0,0
24.05.2018 23:00:00 14,5 10,4 13,1 20,4 22,6 14,4 18 10 29 16 E 1024,8 30 0 0,0
24.05.2018 22:00:00 14,7 10,3 13,4 21,9 23,2 14,4 18 10 29 16 ENE 1025,0 35 0 0,0
24.05.2018 21:00:00 15,9 10,0 14,9 24,0 23,7 14,4 17 9 27 15 ENE 1024,8 40 47 0,0
24.05.2018 20:00:00 16,7 11,7 16,8 26,5 23,9 14,4 19 11 39 21 ENE 1024,7 40 60 0,0
24.05.2018 19:00:00 17,5 11,9 18,5 28,2 23,9 14,4 22 12 40 22 ENE 1024,9 40 60 0,0
24.05.2018 18:00:00 17,9 12,5 20,0 29,4 23,6 14,4 23 13 39 21 NE 1025,0 40 60 0,0
24.05.2018 17:00:00 18,4 12,2 21,9 29,9 23,1 14,4 28 15 42 23 ENE 1025,5 40 60 0,0
24.05.2018 16:00:00 18,7 11,6 22,7 29,9 22,4 14,4 25 13 42 23 ENE 1026,1 40 60 0,0
24.05.2018 15:00:00 18,7 10,9 23,1 29,3 21,5 14,4 29 16 45 24 NE 1026,6 40 60 0,0
24.05.2018 14:00:00 19,4 10,6 23,3 28,0 20,6 14,4 26 14 40 21 NE 1026,9 40 60 0,0
24.05.2018 13:00:00 20,6 10,9 24,8 26,0 19,7 14,3 26 14 37 20 ENE 1027,2 40 60 0,0
24.05.2018 12:00:00 19,8 8,0 23,3 24,0 18,9 14,3 24 13 37 20 E 1027,7 40 60 0,0
24.05.2018 11:00:00 18,8 9,3 22,8 21,7 18,2 14,3 23 13 33 18 E 1027,9 35 60 0,0
24.05.2018 10:00:00 17,7 9,7 21,0 19,5 17,8 14,3 20 11 29 16 E 1027,9 30 60 0,0
24.05.2018 09:00:00 17,3 9,9 20,5 17,5 17,6 14,3 17 9 27 15 ENE 1027,5 30 60 0,0
24.05.2018 08:00:00 16,2 10,1 17,9 15,9 17,7 14,3 17 9 23 13 ENE 1027,5 30 60 0,0
24.05.2018 07:00:00 14,2 10,0 15,0 15,0 17,9 14,3 9 5 17 9 E 1027,3 30 60 0,0
24.05.2018 06:00:00 11,5 9,8 10,2 14,6 18,4 14,3 6 4 11 6 E 1027,1 30 20 0,0
24.05.2018 05:00:00 10,3 9,1 7,2 15,1 18,8 14,3 5 3 14 8 SE 1026,9 30 0 0,0
24.05.2018 04:00:00 12,1 9,7 9,3 15,8 19,4 14,2 10 5 20 11 E 1026,9 50 0 0,0
24.05.2018 03:00:00 11,9 9,3 8,9 16,4 19,9 14,2 13 7 19 10 ENE 1026,8 50 0 0,0
24.05.2018 02:00:00 12,7 9,4 10,0 17,1 20,5 14,2 13 7 19 10 ENE 1026,6 55 0 0,0
24.05.2018 01:00:00 12,2 9,3 9,5 17,9 21,1 14,2 16 8 20 11 ENE 1026,6 50 0 0,0
24.05.2018 00:00:00 12,0 9,2 9,5 19,0 21,8 14,2 14 8 19 10 ENE 1026,4 50 0 0,0
23.05.2018 23:00:00 13,3 9,9 10,6 20,4 22,5 14,2 12 7 17 9 ENE 1026,3 50 0 0,0
23.05.2018 22:00:00 14,7 9,9 12,2 22,1 23,2 14,2 12 6 20 11 E 1025,9 60 0 0,0
23.05.2018 21:00:00 16,0 10,9 14,5 24,2 23,6 14,2 12 7 23 13 ENE 1025,2 60 47 0,0
23.05.2018 20:00:00 17,2 10,4 17,1 26,8 23,8 14,2 15 8 26 14 ENE 1025,1 55 60 0,0
23.05.2018 19:00:00 17,9 10,4 18,8 28,5 23,8 14,2 17 9 27 15 ENE 1025,1 50 60 0,0
23.05.2018 18:00:00 18,7 10,1 20,3 29,8 23,4 14,2 19 10 27 15 NE 1025,2 35 60 0,0
23.05.2018 17:00:00 19,4 9,8 22,3 30,3 22,9 14,2 16 9 28 15 NE 1025,3 35 60 0,0
23.05.2018 16:00:00 19,4 10,6 23,6 30,1 22,1 14,2 17 9 28 15 ENE 1025,3 45 60 0,0
23.05.2018 15:00:00 20,4 10,5 25,4 29,4 21,1 14,1 18 10 25 14 NE 1025,2 40 60 0,0
23.05.2018 14:00:00 19,1 9,0 23,6 28,0 20,2 14,1 13 7 24 13 ENE 1025,1 22 60 0,0
23.05.2018 13:00:00 18,0 9,7 23,4 26,0 19,2 14,1 14 8 27 15 NE 1024,9 26 60 0,0
23.05.2018 12:00:00 18,4 10,2 23,0 23,7 18,3 14,1 16 9 25 14 NE 1024,7 30 60 0,0
23.05.2018 11:00:00 18,0 11,7 22,2 21,5 17,6 14,1 15 8 21 12 NE 1024,3 35 60 0,0
23.05.2018 10:00:00 17,2 11,6 21,6 19,1 17,1 14,1 13 7 19 11 NE 1023,9 35 60 0,0
23.05.2018 09:00:00 16,8 9,9 20,5 17,0 16,9 14,1 11 6 19 10 NE 1023,4 35 60 0,0
23.05.2018 08:00:00 15,9 10,3 17,8 15,2 16,9 14,1 8 5 14 7 ENE 1022,8 43 60 0,0
23.05.2018 07:00:00 12,7 10,2 13,1 14,0 17,2 14,1 2 1 3 2 N 1022,1 15 60 0,0
23.05.2018 06:00:00 8,1 7,6 8,1 13,7 17,7 14,1 0 0 3 2 N 1021,6 15 19 0,0
23.05.2018 05:00:00 8,1 7,9 5,6 14,1 18,2 14,0 0 0 6 3 N 1021,1 15 0 0,0
23.05.2018 04:00:00 8,6 8,1 5,7 14,8 18,7 14,0 0 0 4 2 N 1020,7 20 0 0,0
23.05.2018 03:00:00 8,9 8,4 5,9 15,5 19,3 14,0 2 1 4 2 NE 1020,4 25 0 0,0
23.05.2018 02:00:00 9,5 8,7 6,8 16,4 19,9 14,0 3 2 5 3 ESE 1020,2 30 0 0,0
23.05.2018 01:00:00 10,6 9,0 7,6 17,4 20,6 14,0 3 1 19 11 SE 1019,8 40 0 0,0
23.05.2018 00:00:00 12,0 8,9 8,9 18,5 21,3 14,0 13 7 18 10 ENE 1019,5 50 0 0,0
22.05.2018 23:00:00 12,2 9,4 9,3 19,8 22,0 14,0 13 7 19 10 ENE 1019,2 45 0 0,0
22.05.2018 22:00:00 13,7 9,8 11,6 21,6 22,6 14,0 13 7 20 11 ENE 1018,9 33 0 0,0
22.05.2018 21:00:00 15,2 10,1 13,5 23,8 23,1 14,0 8 4 17 9 ENE 1018,3 39 45 0,0
22.05.2018 20:00:00 16,7 10,2 16,6 26,2 23,2 14,0 15 8 29 16 ENE 1017,9 44 60 0,0
22.05.2018 19:00:00 17,5 12,4 18,5 28,1 23,1 14,0 16 9 26 14 ENE 1017,5 40 60 0,0
22.05.2018 18:00:00 18,1 12,4 20,3 29,1 22,8 14,0 19 11 30 16 NE 1017,5 24 60 0,0
22.05.2018 17:00:00 18,0 12,8 21,0 29,6 22,2 14,0 19 10 32 17 NE 1017,3 22 60 0,0
22.05.2018 16:00:00 17,7 12,2 21,5 29,4 21,4 14,0 21 12 32 17 NE 1017,3 27 60 0,0
22.05.2018 15:00:00 17,9 12,3 22,1 28,8 20,5 14,0 20 11 32 18 NE 1017,5 25 60 0,0
22.05.2018 14:00:00 19,2 11,5 24,4 27,4 19,5 14,0 14 8 28 15 NE 1017,3 22 60 0,0
22.05.2018 13:00:00 19,7 9,6 24,7 25,4 18,5 14,0 19 10 26 14 NE 1017,6 47 60 0,0
22.05.2018 12:00:00 18,3 8,1 22,8 23,1 17,6 13,9 14 8 25 13 ENE 1017,8 25 60 0,0

tt = Température de l'air
td = dewpoint
tt 5cm = Température de l'air 5cm
tt -5cm = Température de l'air -5cm
tt -20cm = Température de l'air -20cm
tt -100cm = Température de l'air -100cm
ff = Vitesse du vent
fx = gusts
dd = Direction du vent
ppp = reduced air pressure
vv = visibility
sd = Ensoleillement
rr = Quantités de précipitations

stations d'obs. à proximité